GW7358 Weather Reports


Display with metric or nautical units.
time (UTC)temp
F
wind
direction
speed
MPH
gust
MPH
rain 1hr
in
rain 24hr
in
rain mn
in
humidity
%
barometer
mb
20260508043659 68 211 2.0 3.0 0.00 0.00 0.00 39 1019.5
20260508043158 68 196 1.0 3.0 0.00 0.00 0.00 40 1019.5
20260508042654 68 193 2.0 2.0 0.00 0.00 0.00 40 1019.5
20260508042151 68 180 1.0 2.0 0.00 0.00 0.00 41 1019.4
20260508041648 68 194 2.0 2.0 0.00 0.00 0.00 39 1019.3
20260508041145 68 167 1.0 2.0 0.00 0.00 0.00 37 1019.1
20260508040641 68 220 0.0 3.0 0.00 0.00 0.00 37 1019.1
20260508040139 67 116 0.0 2.0 0.00 0.00 0.00 40 1019.0
20260508035636 67 134 0.0 3.0 0.00 0.00 0.00 41 1018.9
20260508035133 66 174 0.0 2.0 0.00 0.00 0.00 42 1019.1
20260508034630 67 180 1.0 2.0 0.00 0.00 0.00 42 1019.2
20260508034127 67 202 1.0 2.0 0.00 0.00 0.00 41 1019.2
20260508033624 67 201 2.0 3.0 0.00 0.00 0.00 43 1018.6
20260508033123 67 215 0.0 3.0 0.00 0.00 0.00 42 1018.0
20260508032618 68 187 1.0 2.0 0.00 0.00 0.00 39 1017.6
20260508032116 68 196 1.0 2.0 0.00 0.00 0.00 38 1017.2
20260508031613 68 238 0.0 2.0 0.00 0.00 0.00 37 1017.2
20260508031109 68 203 0.0 2.0 0.00 0.00 0.00 37 1017.0
20260508030606 68 190 1.0 2.0 0.00 0.00 0.00 37 1016.7
20260508030104 68 207 0.0 3.0 0.00 0.00 0.00 35 1017.1
20260508025559 68 197 0.0 2.0 0.00 0.00 0.00 36 1017.1
20260508025057 68 180 2.0 3.0 0.00 0.00 0.00 35 1016.9
20260508024552 68 199 0.0 2.0 0.00 0.00 0.00 35 1017.2
20260508024050 67 260 0.0 3.0 0.00 0.00 0.00 36 1017.0
20260508023546 67 175 2.0 3.0 0.00 0.00 0.00 34 1017.2
20260508023044 67 220 1.0 2.0 0.00 0.00 0.00 35 1017.4
20260508022539 67 138 1.0 2.0 0.00 0.00 0.00 36 1017.3
20260508022037 67 131 2.0 3.0 0.00 0.00 0.00 37 1017.5
20260508021532 66 188 2.0 2.0 0.00 0.00 0.00 37 1017.4
20260508021028 66 190 1.0 2.0 0.00 0.00 0.00 37 1017.5
20260508020526 66 198 1.0 2.0 0.00 0.00 0.00 37 1017.7
20260508020024 66 214 0.0 2.0 0.00 0.00 0.00 37 1017.5
20260508015521 67 197 2.0 2.0 0.00 0.00 0.00 36 1017.4
20260508015018 67 188 2.0 2.0 0.00 0.00 0.00 36 1017.5
20260508014514 67 191 2.0 2.0 0.00 0.00 0.00 35 1017.6
20260508014011 67 159 1.0 3.0 0.00 0.00 0.00 35 1017.7
20260508013507 67 205 2.0 3.0 0.00 0.00 0.00 34 1017.7
20260508013005 67 160 0.0 2.0 0.00 0.00 0.00 34 1017.7
20260508012501 67 142 2.0 3.0 0.00 0.00 0.00 34 1018.0
20260508011958 67 46 1.0 2.0 0.00 0.00 0.00 33 1017.9
20260508011456 68 182 2.0 2.0 0.00 0.00 0.00 32 1018.0
20260508010954 68 143 1.0 3.0 0.00 0.00 0.00 32 1018.1
20260508010450 67 177 1.0 3.0 0.00 0.00 0.00 31 1018.0
20260508005948 67 137 0.0 3.0 0.00 0.00 0.00 31 1018.3
20260508005444 67 195 2.0 3.0 0.00 0.00 0.00 33 1017.9
20260508004941 67 190 1.0 2.0 0.00 0.00 0.00 32 1017.9
20260508004437 67 186 2.0 2.0 0.00 0.00 0.00 35 1017.7
20260508003934 67 25 1.0 3.0 0.00 0.00 0.00 37 1018.0
20260508003431 67 60 2.0 3.0 0.00 0.00 0.00 37 1017.9
20260508002928 67 56 0.0 3.0 0.00 0.00 0.00 38 1018.0
20260508002424 67 48 2.0 2.0 0.00 0.00 0.00 39 1018.1
20260508001920 66 183 1.0 2.0 0.00 0.00 0.00 40 1018.1
20260508001417 66 192 2.0 2.0 0.00 0.00 0.00 40 1018.2
20260508000913 66 171 1.0 2.0 0.00 0.00 0.00 40 1018.3
20260508000412 66 188 2.0 2.0 0.00 0.00 0.00 40 1018.5
20260507235906 66 2 1.0 1.0 0.00 0.00 0.00 42 1018.6
20260507235404 66 193 0.0 2.0 0.00 0.00 0.00 41 1018.6
20260507234900 66 202 2.0 2.0 0.00 0.00 0.00 40 1018.7
20260507234359 66 191 1.0 2.0 0.00 0.00 0.00 41 1018.6
20260507233853 66 193 2.0 2.0 0.00 0.00 0.00 41 1018.8
20260507233351 66 216 0.0 2.0 0.00 0.00 0.00 41 1018.9
20260507232849 66 190 1.0 2.0 0.00 0.00 0.00 40 1019.1
20260507232345 65 263 2.0 3.0 0.00 0.00 0.00 39 1019.0
20260507231843 65 61 0.0 1.0 0.00 0.00 0.00 40 1019.1
20260507231339 66 191 0.0 2.0 0.00 0.00 0.00 40 1019.1
20260507230835 65 207 0.0 1.0 0.00 0.00 0.00 40 1019.3
20260507230333 65 351 2.0 2.0 0.00 0.00 0.00 40 1019.4
20260507225833 64 181 2.0 2.0 0.00 0.00 0.00 41 1019.5
20260507225329 65 209 1.0 1.0 0.00 0.00 0.00 40 1019.5
20260507224825 64 156 0.0 2.0 0.00 0.00 0.00 40 1019.5
20260507224322 64 165 0.0 1.0 0.00 0.00 0.00 39 1019.7
20260507223818 64 109 0.0 2.0 0.00 0.00 0.00 40 1019.7
20260507223314 64 183 1.0 2.0 0.00 0.00 0.00 38 1019.7
20260507222812 63 202 1.0 3.0 0.00 0.00 0.00 39 1020.0
20260507222308 63 77 0.0 2.0 0.00 0.00 0.00 41 1019.9
20260507221805 63 144 1.0 2.0 0.00 0.00 0.00 40 1019.7
20260507221302 62 178 2.0 2.0 0.00 0.00 0.00 42 1020.0
20260507220757 62 190 2.0 2.0 0.00 0.00 0.00 47 1020.1
20260507220256 62 140 0.0 2.0 0.00 0.00 0.00 48 1020.2
20260507215752 62 173 0.0 0.0 0.00 0.00 0.00 48 1020.4
20260507215250 62 181 1.0 1.0 0.00 0.00 0.00 48 1020.5
20260507214747 63 327 0.0 0.0 0.00 0.00 0.00 48 1020.2
20260507214244 64 162 0.0 1.0 0.00 0.00 0.00 47 1020.1
20260507213739 65 200 1.0 2.0 0.00 0.00 0.00 46 1020.2
20260507213236 65 215 1.0 2.0 0.00 0.00 0.00 45 1020.0
20260507212732 65 183 0.0 2.0 0.00 0.00 0.00 43 1019.8
20260507212229 66 44 0.0 1.0 0.00 0.00 0.00 42 1019.6
20260507211726 66 190 2.0 2.0 0.00 0.00 0.00 40 1019.6
20260507211222 66 184 1.0 2.0 0.00 0.00 0.00 42 1019.5
20260507210719 66 177 1.0 2.0 0.00 0.00 0.00 42 1019.8
20260507210216 66 202 2.0 2.0 0.00 0.00 0.00 42 1020.0
20260507205712 66 145 1.0 2.0 0.00 0.00 0.00 43 1020.1
20260507205209 65 188 0.0 2.0 0.00 0.00 0.00 44 1020.5
20260507204705 65 201 1.0 2.0 0.00 0.00 0.00 48 1020.5
20260507204203 65 191 0.0 2.0 0.00 0.00 0.00 47 1020.5
20260507203701 65 183 0.0 2.0 0.00 0.00 0.00 48 1020.8
20260507203158 65 180 0.0 2.0 0.00 0.00 0.00 48 1020.9
20260507202653 66 183 1.0 2.0 0.00 0.00 0.00 46 1020.6
20260507202150 66 205 1.0 2.0 0.00 0.00 0.00 45 1020.5
20260507201645 66 209 2.0 2.0 0.00 0.00 0.00 45 1020.6
20260507201142 66 180 2.0 2.0 0.00 0.00 0.00 44 1020.6
20260507200638 66 187 0.0 2.0 0.00 0.00 0.00 44 1020.6
20260507200135 66 206 1.0 2.0 0.00 0.00 0.00 44 1020.6
20260507195631 66 278 0.0 2.0 0.00 0.00 0.00 43 1020.6
20260507195129 65 332 2.0 4.0 0.00 0.00 0.00 46 1020.6
20260507194626 65 195 1.0 2.0 0.00 0.00 0.00 46 1020.2
20260507194120 65 182 0.0 1.0 0.00 0.00 0.00 45 1020.3
20260507193618 65 186 0.0 2.0 0.00 0.00 0.00 45 1020.5
20260507193115 65 180 0.0 2.0 0.00 0.00 0.00 45 1020.4
20260507192611 66 202 0.0 2.0 0.00 0.00 0.00 44 1020.4
20260507192108 66 184 1.0 2.0 0.00 0.00 0.00 44 1020.3
20260507191603 65 157 0.0 2.0 0.00 0.00 0.00 44 1020.3
20260507191101 65 158 0.0 2.0 0.00 0.00 0.00 44 1020.2
20260507190558 65 172 0.0 3.0 0.00 0.00 0.00 44 1020.1
20260507190057 65 165 1.0 2.0 0.00 0.00 0.00 44 1020.1
20260507185555 65 171 0.0 2.0 0.00 0.00 0.00 45 1020.0
20260507185051 65 125 0.0 2.0 0.00 0.00 0.00 44 1020.0
20260507184549 65 183 0.0 3.0 0.00 0.00 0.00 43 1019.9
20260507184047 65 170 2.0 3.0 0.00 0.00 0.00 43 1019.6
20260507183542 65 190 0.0 2.0 0.00 0.00 0.00 44 1019.5
20260507183040 65 66 1.0 2.0 0.00 0.00 0.00 44 1019.7
20260507182536 66 132 0.0 2.0 0.00 0.00 0.00 43 1019.4
20260507182032 66 146 1.0 2.0 0.00 0.00 0.00 44 1019.4
20260507181529 66 258 2.0 3.0 0.00 0.00 0.00 43 1019.6
20260507181025 66 180 0.0 3.0 0.00 0.00 0.00 43 1019.5
20260507180522 66 187 0.0 2.0 0.00 0.00 0.00 44 1019.9
20260507180019 66 127 0.0 2.0 0.00 0.00 0.00 45 1020.0
20260507175515 66 181 1.0 1.0 0.00 0.00 0.00 44 1020.0
20260507175013 66 190 2.0 2.0 0.00 0.00 0.00 44 1020.0
20260507174510 67 193 0.0 2.0 0.00 0.00 0.00 44 1019.7
20260507174007 67 189 2.0 2.0 0.00 0.00 0.00 45 1019.8
20260507173504 67 188 2.0 2.0 0.00 0.00 0.00 45 1019.5
20260507173001 67 194 1.0 2.0 0.00 0.00 0.00 46 1019.6
20260507172457 67 180 2.0 2.0 0.00 0.00 0.00 46 1019.6
20260507171954 67 191 2.0 2.0 0.00 0.00 0.00 47 1019.6
20260507171449 68 186 2.0 2.0 0.00 0.00 0.00 48 1019.6
20260507170947 68 144 0.0 3.0 0.00 0.00 0.00 47 1019.6
20260507170444 68 194 2.0 2.0 0.00 0.00 0.00 47 1019.6
20260507165940 68 176 1.0 2.0 0.00 0.00 0.00 45 1019.6
20260507165436 69 202 1.0 2.0 0.00 0.00 0.00 44 1019.4
20260507164932 69 197 0.0 2.0 0.00 0.00 0.00 45 1019.4
20260507164429 70 193 0.0 2.0 0.00 0.00 0.00 44 1019.4
20260507163926 70 224 0.0 2.0 0.00 0.00 0.00 43 1019.1
20260507163424 71 204 0.0 2.0 0.00 0.00 0.00 44 1019.2
20260507162920 71 190 1.0 2.0 0.00 0.00 0.00 43 1019.2
20260507162415 71 149 0.0 1.0 0.00 0.00 0.00 43 1019.3
20260507161913 71 198 1.0 1.0 0.00 0.00 0.00 41 1019.2
20260507161409 71 230 0.0 0.0 0.00 0.00 0.00 38 1019.3
20260507160906 71 198 2.0 3.0 0.00 0.00 0.00 41 1019.5
20260507160401 71 214 4.0 4.0 0.00 0.00 0.00 40 1019.3
20260507155858 71 214 2.0 3.0 0.00 0.00 0.00 38 1019.3
20260507155354 71 216 3.0 3.0 0.00 0.00 0.00 38 1019.3
20260507154851 71 218 3.0 3.0 0.00 0.00 0.00 40 1019.1
20260507154348 71 242 2.0 3.0 0.00 0.00 0.00 39 1019.2
20260507153845 71 241 2.0 3.0 0.00 0.00 0.00 44 1019.2
20260507153341 72 228 3.0 3.0 0.00 0.00 0.00 47 1019.2
20260507152838 72 233 3.0 4.0 0.00 0.00 0.00 48 1018.9
20260507152334 72 215 2.0 5.0 0.00 0.00 0.00 46 1019.0
20260507151831 72 221 4.0 6.0 0.00 0.00 0.00 50 1019.2
20260507151327 73 208 4.0 6.0 0.00 0.00 0.00 42 1019.1
20260507150824 74 215 2.0 3.0 0.00 0.00 0.00 34 1019.4
20260507150320 74 185 0.0 2.0 0.00 0.00 0.00 35 1019.3
20260507145817 74 197 0.0 2.0 0.00 0.00 0.00 35 1019.5
20260507145313 73 236 0.0 2.0 0.00 0.00 0.00 35 1019.7
20260507144811 73 193 2.0 2.0 0.00 0.00 0.00 36 1019.7
20260507144307 72 196 1.0 3.0 0.00 0.00 0.00 39 1019.9
20260507143804 72 89 1.0 1.0 0.00 0.00 0.00 41 1020.1
20260507143302 72 210 0.0 3.0 0.00 0.00 0.00 39 1020.3
20260507142757 71 292 0.0 1.0 0.00 0.00 0.00 36 1020.2
20260507142254 71 187 1.0 2.0 0.00 0.00 0.00 39 1020.4
20260507141750 71 193 2.0 3.0 0.00 0.00 0.00 44 1020.2
20260507141248 71 231 2.0 3.0 0.00 0.00 0.00 49 1020.1
20260507140743 71 246 2.0 3.0 0.00 0.00 0.00 48 1020.2
20260507140241 71 201 2.0 3.0 0.00 0.00 0.00 48 1020.2
20260507135738 71 248 2.0 4.0 0.00 0.00 0.00 48 1019.8
20260507135235 71 228 5.0 6.0 0.00 0.00 0.00 48 1019.8
20260507134731 72 214 3.0 5.0 0.00 0.00 0.00 47 1020.0
20260507134228 72 218 3.0 5.0 0.00 0.00 0.00 41 1019.7
20260507133724 72 230 5.0 5.0 0.00 0.00 0.00 43 1019.7
20260507133221 72 233 4.0 6.0 0.00 0.00 0.00 48 1019.7
20260507132718 73 213 6.0 6.0 0.00 0.00 0.00 55 1019.6
20260507132215 73 222 5.0 6.0 0.00 0.00 0.00 55 1019.6
20260507131712 73 224 4.0 6.0 0.00 0.00 0.00 54 1019.7
20260507131209 72 206 4.0 5.0 0.00 0.00 0.00 51 1019.7
20260507130706 72 216 6.0 6.0 0.00 0.00 0.00 47 1019.8
20260507130204 73 202 4.0 7.0 0.00 0.00 0.00 50 1019.9
20260507125702 72 212 4.0 6.0 0.00 0.00 0.00 56 1019.9
20260507125159 73 224 5.0 6.0 0.00 0.00 0.00 55 1020.1
20260507124655 74 205 4.0 8.0 0.00 0.00 0.00 54 1020.3
20260507124153 74 223 5.0 7.0 0.00 0.00 0.00 52 1020.1
20260507123651 74 221 4.0 8.0 0.00 0.00 0.00 51 1020.2
20260507123148 73 223 6.0 7.0 0.00 0.00 0.00 50 1020.3
20260507122643 73 187 6.0 6.0 0.00 0.00 0.00 50 1020.4
20260507122139 74 208 3.0 6.0 0.00 0.00 0.00 48 1020.7
20260507121635 75 229 5.0 8.0 0.00 0.00 0.00 49 1020.5
20260507121131 75 213 4.0 7.0 0.00 0.00 0.00 48 1020.7
20260507120628 74 203 4.0 7.0 0.00 0.00 0.00 47 1020.7
20260507120124 73 207 4.0 7.0 0.00 0.00 0.00 51 1020.7
20260507115621 73 217 6.0 7.0 0.00 0.00 0.00 50 1020.6
20260507115117 75 205 5.0 7.0 0.00 0.00 0.00 50 1020.4
20260507114613 75 227 5.0 9.0 0.00 0.00 0.00 54 1020.4
20260507114110 74 199 6.0 8.0 0.00 0.00 0.00 52 1020.4
20260507113607 74 214 5.0 7.0 0.00 0.00 0.00 53 1020.2
20260507113104 75 228 4.0 7.0 0.00 0.00 0.00 52 1020.0
20260507112602 74 229 4.0 6.0 0.00 0.00 0.00 54 1020.2
20260507112059 73 209 4.0 4.0 0.00 0.00 0.00 53 1020.4
20260507111555 73 229 4.0 6.0 0.00 0.00 0.00 55 1020.7
20260507111052 73 239 2.0 5.0 0.00 0.00 0.00 57 1020.8
20260507110548 73 226 4.0 5.0 0.00 0.00 0.00 60 1020.9
20260507110045 73 231 3.0 5.0 0.00 0.00 0.00 59 1020.8
20260507105542 73 242 3.0 5.0 0.00 0.00 0.00 57 1020.5
20260507105038 74 240 4.0 5.0 0.00 0.00 0.00 56 1020.4
20260507104535 73 250 2.0 5.0 0.00 0.00 0.00 60 1020.5
20260507104032 73 217 4.0 6.0 0.00 0.00 0.00 61 1020.3
20260507103528 73 236 4.0 4.0 0.00 0.00 0.00 61 1020.5
20260507103025 72 207 4.0 4.0 0.00 0.00 0.00 62 1020.6
20260507102522 72 230 4.0 5.0 0.00 0.00 0.00 62 1020.6
20260507102018 72 230 4.0 5.0 0.00 0.00 0.00 61 1020.5
20260507101513 72 248 4.0 5.0 0.00 0.00 0.00 62 1020.5
20260507101010 71 225 4.0 5.0 0.00 0.00 0.00 63 1020.6
20260507100507 71 233 4.0 5.0 0.00 0.00 0.00 65 1020.4
20260507100005 71 234 4.0 5.0 0.00 0.00 0.00 64 1020.4
20260507095503 71 207 4.0 6.0 0.00 0.00 0.00 66 1020.5
20260507094959 71 231 7.0 9.0 0.00 0.00 0.00 64 1020.3
20260507094455 72 218 5.0 8.0 0.00 0.00 0.00 63 1020.2
20260507093953 72 218 6.0 6.0 0.00 0.00 0.00 60 1020.2
20260507093450 72 214 4.0 6.0 0.00 0.00 0.00 63 1020.5
20260507092948 71 209 5.0 6.0 0.00 0.00 0.00 62 1020.5
20260507092444 71 206 5.0 5.0 0.00 0.00 0.00 62 1020.6
20260507091941 72 198 5.0 7.0 0.00 0.00 0.00 62 1020.6
20260507091438 72 203 5.0 7.0 0.00 0.00 0.00 65 1020.6
20260507090934 71 215 3.0 6.0 0.00 0.00 0.00 65 1020.2
20260507090430 71 227 4.0 6.0 0.00 0.00 0.00 65 1020.4
20260507085926 70 217 6.0 7.0 0.00 0.00 0.00 65 1020.3
20260507085424 70 215 6.0 6.0 0.00 0.00 0.00 65 1020.4
20260507084921 70 231 7.0 8.0 0.00 0.00 0.00 67 1020.3
20260507084417 70 223 5.0 7.0 0.00 0.00 0.00 67 1020.4
20260507083915 70 216 5.0 6.0 0.00 0.00 0.00 65 1020.1
20260507083411 70 244 4.0 4.0 0.00 0.00 0.00 68 1020.2
20260507082907 70 214 4.0 5.0 0.00 0.00 0.00 68 1020.2
20260507082403 70 218 5.0 6.0 0.00 0.00 0.00 66 1020.2
20260507081901 70 228 5.0 6.0 0.00 0.00 0.00 66 1020.3
20260507081356 70 206 3.0 5.0 0.00 0.00 0.00 67 1020.2
20260507080853 69 211 4.0 6.0 0.00 0.00 0.00 68 1020.0
20260507080349 70 221 4.0 7.0 0.00 0.00 0.00 67 1020.0
20260507075845 69 243 2.0 5.0 0.00 0.00 0.00 67 1019.8
20260507075341 69 219 4.0 6.0 0.00 0.00 0.00 64 1019.9
20260507074838 69 214 5.0 6.0 0.00 0.00 0.00 64 1019.9
20260507074335 69 214 4.0 6.0 0.00 0.00 0.00 64 1019.7
20260507073832 69 229 6.0 9.0 0.00 0.00 0.00 66 1019.8
20260507073329 69 233 4.0 6.0 0.00 0.00 0.00 66 1019.7
20260507072826 69 223 4.0 6.0 0.00 0.00 0.00 65 1019.9
20260507072323 69 234 2.0 4.0 0.00 0.00 0.00 64 1020.1
20260507071821 69 239 2.0 4.0 0.00 0.00 0.00 65 1020.0
20260507071318 69 195 4.0 6.0 0.00 0.00 0.00 64 1020.1
20260507070814 69 219 3.0 3.0 0.00 0.00 0.00 64 1019.9
20260507070312 68 242 3.0 4.0 0.00 0.00 0.00 64 1019.9
20260507065808 68 218 3.0 4.0 0.00 0.00 0.00 64 1019.8
20260507065306 68 218 4.0 5.0 0.00 0.00 0.00 65 1019.9
20260507064802 68 230 4.0 5.0 0.00 0.00 0.00 64 1019.7
20260507064301 68 248 3.0 4.0 0.00 0.00 0.00 63 1019.8
20260507063758 68 229 3.0 4.0 0.00 0.00 0.00 63 1019.8
20260507063255 67 227 3.0 4.0 0.00 0.00 0.00 64 1019.9
20260507062751 67 243 3.0 4.0 0.00 0.00 0.00 63 1019.6
20260507062249 68 221 3.0 4.0 0.00 0.00 0.00 63 1019.7
20260507061747 68 232 6.0 6.0 0.00 0.00 0.00 60 1019.7
20260507061244 67 220 4.0 5.0 0.00 0.00 0.00 60 1019.6
20260507060743 67 227 3.0 5.0 0.00 0.00 0.00 58 1019.4
20260507060239 67 208 3.0 4.0 0.00 0.00 0.00 57 1019.4
20260507055735 67 220 4.0 5.0 0.00 0.00 0.00 58 1019.4
20260507055230 67 195 3.0 4.0 0.00 0.00 0.00 57 1019.3
20260507054726 67 205 3.0 4.0 0.00 0.00 0.00 56 1019.2
20260507054224 66 201 2.0 3.0 0.00 0.00 0.00 53 1019.2
20260507053721 65 214 2.0 3.0 0.00 0.00 0.00 60 1019.4
20260507053219 65 109 0.0 2.0 0.00 0.00 0.00 58 1019.2
20260507052718 64 226 2.0 3.0 0.00 0.00 0.00 58 1019.2
20260507052213 63 197 2.0 3.0 0.00 0.00 0.00 54 1019.2
20260507051712 61 281 1.0 2.0 0.00 0.00 0.00 57 1019.3
20260507051208 61 203 0.0 2.0 0.00 0.00 0.00 60 1019.2
20260507050705 60 217 0.0 2.0 0.00 0.00 0.00 61 1019.3
20260507050202 60 207 0.0 2.0 0.00 0.00 0.00 61 1019.1
20260507045658 59 191 2.0 2.0 0.00 0.00 0.00 63 1019.2
20260507045156 59 191 0.0 2.0 0.00 0.00 0.00 62 1019.1
20260507044652 59 185 2.0 2.0 0.00 0.00 0.00 62 1019.2
20260507044148 59 198 0.0 2.0 0.00 0.00 0.00 62 1019.0